TSO108 ULLI-UUWW

Flight info

Callsign TSO108
Flight time N/A
Altitude 35000
Route K0885F350 SUGIN1B SUGIN T873 NIRGI T73 DESUD T834 ADOKU/K0878F270 T834 BEKIP BEKIP3A
Aircraft B77L/H-SDE1E2E3FGHIJ2J3J4J5M1RWXY/LB1D1

Departure

Time 2026-05-07 20:18
Airport Pulkovo Airport (ULLI)

Arrival

Time N/A
Airport Vnukovo International Airport (UUWW)
Time Latitude Longitude Altitude Speed Heading
2026-05-07 19:55 59.79752 30.25915 92 ft 0 kts 286°
2026-05-07 20:10 59.79745 30.25962 92 ft 2 kts 286°
2026-05-07 20:10 59.79742 30.25984 92 ft 0 kts 286°
2026-05-07 20:10 59.79739 30.26008 92 ft 2 kts 276°
2026-05-07 20:10 59.79739 30.26038 92 ft 2 kts 258°
2026-05-07 20:11 59.79743 30.26066 92 ft 2 kts 244°
2026-05-07 20:11 59.79751 30.26092 92 ft 2 kts 229°
2026-05-07 20:11 59.79762 30.26112 92 ft 2 kts 214°
2026-05-07 20:11 59.79775 30.26126 92 ft 1 kts 199°
2026-05-07 20:12 59.79781 30.26130 92 ft 0 kts 196°
2026-05-07 20:13 59.79778 30.26129 92 ft 2 kts 193°
2026-05-07 20:13 59.79753 30.26139 92 ft 5 kts 147°
2026-05-07 20:13 59.79726 30.26222 92 ft 8 kts 120°
2026-05-07 20:14 59.79721 30.26319 92 ft 4 kts 101°
2026-05-07 20:14 59.79678 30.26332 92 ft 9 kts 192°
2026-05-07 20:14 59.79602 30.26290 92 ft 13 kts 196°
2026-05-07 20:14 59.79514 30.26300 92 ft 14 kts 117°
2026-05-07 20:15 59.79477 30.26509 92 ft 17 kts 107°
2026-05-07 20:15 59.79442 30.26746 92 ft 17 kts 105°
2026-05-07 20:15 59.79406 30.27004 92 ft 20 kts 105°
2026-05-07 20:15 59.79364 30.27294 92 ft 23 kts 107°
2026-05-07 20:16 59.79314 30.27624 92 ft 26 kts 107°
2026-05-07 20:16 59.79265 30.27948 92 ft 25 kts 106°
2026-05-07 20:16 59.79211 30.28191 92 ft 19 kts 139°
2026-05-07 20:16 59.79081 30.28227 92 ft 21 kts 216°
2026-05-07 20:17 59.79064 30.28076 92 ft 0 kts 283°
2026-05-07 20:17 59.79069 30.28030 92 ft 21 kts 283°
2026-05-07 20:17 59.79182 30.27281 92 ft 90 kts 286°
2026-05-07 20:17 59.79421 30.25666 92 ft 151 kts 286°
2026-05-07 20:18 59.79755 30.23450 340 ft 179 kts 287°
2026-05-07 20:18 59.80099 30.21085 949 ft 183 kts 287°
2026-05-07 20:18 59.80456 30.18641 1555 ft 190 kts 288°
2026-05-07 20:18 59.80849 30.16004 1930 ft 206 kts 289°
2026-05-07 20:19 59.81276 30.13189 2350 ft 221 kts 289°
2026-05-07 20:19 59.81721 30.10202 2887 ft 232 kts 289°
2026-05-07 20:19 59.82179 30.07057 3416 ft 245 kts 289°
2026-05-07 20:19 59.82624 30.03752 3993 ft 255 kts 278°
2026-05-07 20:20 59.82494 30.00176 4497 ft 271 kts 253°
2026-05-07 20:20 59.81524 29.96969 5166 ft 277 kts 224°
2026-05-07 20:20 59.79916 29.94958 5862 ft 280 kts 200°
2026-05-07 20:20 59.78067 29.93798 6589 ft 283 kts 195°
2026-05-07 20:21 59.76137 29.93212 7257 ft 285 kts 174°
2026-05-07 20:21 59.74250 29.94273 7893 ft 285 kts 148°
2026-05-07 20:21 59.72777 29.96868 8517 ft 285 kts 122°
2026-05-07 20:21 59.71946 30.00368 9129 ft 286 kts 106°
2026-05-07 20:22 59.71360 30.04154 9691 ft 291 kts 104°
2026-05-07 20:22 59.70800 30.08019 10267 ft 296 kts 104°
2026-05-07 20:22 59.70218 30.12013 10535 ft 313 kts 104°
2026-05-07 20:22 59.69710 30.16359 10802 ft 330 kts 96°
2026-05-07 20:23 59.69552 30.20959 11062 ft 346 kts 90°
2026-05-07 20:23 59.69475 30.25810 11371 ft 363 kts 90°
2026-05-07 20:23 59.69393 30.30883 11707 ft 379 kts 90°
2026-05-07 20:23 59.69110 30.36168 12062 ft 395 kts 99°
2026-05-07 20:24 59.68559 30.41533 12666 ft 405 kts 101°
2026-05-07 20:24 59.67971 30.47032 13398 ft 412 kts 101°
2026-05-07 20:24 59.67373 30.52603 14147 ft 419 kts 102°
2026-05-07 20:24 59.66765 30.58259 14934 ft 426 kts 102°
2026-05-07 20:25 59.66149 30.63970 15802 ft 432 kts 102°
2026-05-07 20:25 59.65519 30.69781 16621 ft 439 kts 103°
2026-05-07 20:25 59.64976 30.75754 17375 ft 446 kts 100°
2026-05-07 20:25 59.64491 30.81812 18133 ft 453 kts 101°
2026-05-07 20:26 59.63991 30.88024 18889 ft 460 kts 101°
2026-05-07 20:26 59.63477 30.94303 19592 ft 468 kts 101°
2026-05-07 20:26 59.62953 31.00636 20286 ft 474 kts 102°
2026-05-07 20:26 59.62418 31.07035 20990 ft 480 kts 102°
2026-05-07 20:27 59.61869 31.13539 21641 ft 486 kts 102°
2026-05-07 20:27 59.61309 31.20115 22301 ft 492 kts 102°
2026-05-07 20:27 59.60735 31.26802 22969 ft 497 kts 103°
2026-05-07 20:27 59.60155 31.33516 23588 ft 503 kts 103°
2026-05-07 20:28 59.59562 31.40336 24133 ft 510 kts 103°
2026-05-07 20:28 59.58960 31.47214 24771 ft 514 kts 103°
2026-05-07 20:28 59.58346 31.54179 25413 ft 518 kts 103°
2026-05-07 20:28 59.57722 31.61210 26054 ft 523 kts 104°
2026-05-07 20:29 59.57093 31.68247 26638 ft 528 kts 104°
2026-05-07 20:29 59.56454 31.75359 27151 ft 534 kts 105°
2026-05-07 20:29 59.55803 31.82549 27685 ft 540 kts 105°
2026-05-07 20:29 59.55130 31.89929 28216 ft 546 kts 105°
2026-05-07 20:30 59.54409 31.97241 28825 ft 547 kts 109°
2026-05-07 20:30 59.53272 32.04308 29398 ft 544 kts 118°
2026-05-07 20:30 59.51661 32.10901 30047 ft 536 kts 128°
2026-05-07 20:30 59.49598 32.16942 30960 ft 521 kts 136°
2026-05-07 20:31 59.47255 32.22184 31817 ft 508 kts 143°
2026-05-07 20:31 59.44791 32.27148 32682 ft 502 kts 143°
2026-05-07 20:31 59.42335 32.32029 33448 ft 497 kts 144°
2026-05-07 20:31 59.39873 32.36879 34054 ft 496 kts 144°
2026-05-07 20:32 59.37421 32.41684 34596 ft 496 kts 144°
2026-05-07 20:32 59.34935 32.46529 34931 ft 498 kts 144°
2026-05-07 20:32 59.32449 32.51356 35007 ft 498 kts 144°
2026-05-07 20:33 59.27573 32.60788 35022 ft 492 kts 144°
2026-05-07 20:33 59.22680 32.70187 35002 ft 495 kts 145°
2026-05-07 20:34 59.17810 32.79506 34995 ft 490 kts 145°
2026-05-07 20:34 59.12946 32.88759 34993 ft 493 kts 145°
2026-05-07 20:35 59.08075 32.97995 34991 ft 489 kts 146°
2026-05-07 20:35 59.03183 33.07224 34978 ft 488 kts 146°
2026-05-07 20:36 58.98305 33.16376 34998 ft 501 kts 146°
2026-05-07 20:36 58.93203 33.25907 34981 ft 516 kts 146°
2026-05-07 20:37 58.88011 33.35587 34981 ft 515 kts 145°
2026-05-07 20:37 58.82859 33.45148 34991 ft 516 kts 145°